Location: Unspecified
(51.0459°N, 0.0000°E)
Time: 15:02:41
(UTC+00:00)

ISS - Pass Details

Date: 30 May 2019
Orbit: 408 x 418 km, 51.6° (Epoch: 17 June)

Event Time Altitude Azimuth Distance (km) Brightness Sun altitude
Rises 22:04:15 0° 284° (WNW) 2,359 0.7 -13.0°
Reaches altitude 10° 22:06:35 10° 270° (W) 1,495 -0.6 -13.1°
Maximum altitude 22:09:21 24° 214° (SW) 911 -2.3 -13.3°
Enters shadow 22:10:17 21° 188° (S) 995 -2.3 -13.4°
